Time,TemperatureF,DewpointF,PressureIn,WindDirection,WindDirectionDegrees,WindSpeedMPH,WindSpeedGustMPH,Humidity,HourlyPrecipIn,Conditions,Clouds,dailyrainin,SoftwareType,DateUTC
2013-01-15 00:03:00,25.0,25.0,29.90,SE,135,0.0,0.0,100,0.00,,---,0.00,VWS V14.00,2013-01-15 05:03:00,
2013-01-15 00:05:00,38.0,27.3,30.24,SSW,202,0.0,0.0,65,0.00,,---,0.00,VWS V14.00,2013-01-15 05:05:00,
2013-01-15 00:09:00,25.0,25.0,29.90,SE,135,0.0,0.0,100,0.00,,---,0.00,VWS V14.00,2013-01-15 05:09:00,
2013-01-15 00:10:00,38.0,27.3,30.24,SSW,202,0.0,0.0,65,0.00,,---,0.00,VWS V14.00,2013-01-15 05:10:00,
2013-01-15 00:11:00,25.0,25.0,29.90,SE,135,0.0,0.0,100,0.00,,---,0.00,VWS V14.00,2013-01-15 05:11:00,
2013-01-15 00:12:00,25.0,25.0,29.90,SE,135,0.0,0.0,100,0.00,,---,0.00,VWS V14.00,2013-01-15 05:12:00,
2013-01-15 00:13:00,25.0,25.0,29.90,SE,135,0.0,0.0,100,0.00,,---,0.00,VWS V14.00,2013-01-15 05:13:00,
2013-01-15 00:15:00,38.0,26.9,30.24,SW,225,0.0,0.0,64,0.00,,---,0.00,VWS V14.00,2013-01-15 05:15:00,
2013-01-15 00:20:00,38.0,27.3,30.24,SW,225,0.0,0.0,65,0.00,,---,0.00,VWS V14.00,2013-01-15 05:20:00,
2013-01-15 00:25:00,38.0,26.9,30.24,WSW,247,0.0,0.0,64,0.00,,---,0.00,VWS V14.00,2013-01-15 05:25:00,
2013-01-15 00:30:00,38.0,26.9,30.25,WSW,247,0.0,0.0,64,0.00,,---,0.00,VWS V14.00,2013-01-15 05:30:00,
2013-01-15 00:33:00,26.0,26.0,29.90,SE,135,0.0,0.0,100,0.00,,---,0.00,VWS V14.00,2013-01-15 05:33:00,
2013-01-15 00:35:00,38.0,26.9,30.25,WSW,247,0.0,0.0,64,0.00,,---,0.00,VWS V14.00,2013-01-15 05:35:00,
2013-01-15 00:36:00,26.0,26.0,29.92,SE,135,0.0,0.0,100,0.00,,---,0.00,VWS V14.00,2013-01-15 05:36:00,
2013-01-15 00:37:00,26.0,26.0,29.92,SE,135,0.0,0.0,100,0.00,,---,0.00,VWS V14.00,2013-01-15 05:37:00,
2013-01-15 00:38:00,26.0,26.0,29.92,SE,135,0.0,0.0,100,0.00,,---,0.00,VWS V14.00,2013-01-15 05:38:00,
2013-01-15 00:39:00,26.0,26.0,29.92,SE,135,0.0,0.0,100,0.00,,---,0.00,VWS V14.00,2013-01-15 05:39:00,
2013-01-15 00:40:00,38.0,26.9,30.24,WSW,247,0.0,0.0,64,0.00,,---,0.00,VWS V14.00,2013-01-15 05:40:00,
2013-01-15 00:45:00,38.0,26.9,30.24,WSW,247,0.0,0.0,64,0.00,,---,0.00,VWS V14.00,2013-01-15 05:45:00,
2013-01-15 00:48:00,26.0,26.0,29.92,SE,135,0.0,0.0,100,0.00,,---,0.00,VWS V14.00,2013-01-15 05:48:00,
2013-01-15 00:50:00,37.0,26.0,30.25,ENE,67,0.0,0.0,64,0.00,,---,0.00,VWS V14.00,2013-01-15 05:50:00,
2013-01-15 00:51:00,25.0,25.0,29.92,SE,135,0.0,0.0,100,0.00,,---,0.00,VWS V14.00,2013-01-15 05:51:00,
2013-01-15 00:52:00,25.0,25.0,29.92,SE,135,0.0,0.0,100,0.00,,---,0.00,VWS V14.00,2013-01-15 05:52:00,
2013-01-15 00:53:00,25.0,25.0,29.92,SE,135,0.0,0.0,100,0.00,,---,0.00,VWS V14.00,2013-01-15 05:53:00,
2013-01-15 00:54:00,25.0,25.0,29.92,SE,135,0.0,0.0,100,0.00,,---,0.00,VWS V14.00,2013-01-15 05:54:00,
2013-01-15 00:55:00,37.0,26.3,30.25,South,180,0.0,0.0,65,0.00,,---,0.00,VWS V14.00,2013-01-15 05:55:00,
2013-01-15 00:59:00,25.0,25.0,29.93,SE,135,0.0,0.0,100,0.00,,---,0.00,VWS V14.00,2013-01-15 05:59:00,
2013-01-15 01:00:00,37.0,26.0,30.25,SSW,202,0.0,0.0,64,0.00,,---,0.00,VWS V14.00,2013-01-15 06:00:00,
2013-01-15 01:01:00,25.0,25.0,29.93,SE,135,0.0,0.0,100,0.00,,---,0.00,VWS V14.00,2013-01-15 06:01:00,
2013-01-15 01:02:00,25.0,25.0,29.93,SE,135,0.0,0.0,100,0.00,,---,0.00,VWS V14.00,2013-01-15 06:02:00,
2013-01-15 01:03:00,25.0,25.0,29.93,SE,135,0.0,0.0,100,0.00,,---,0.00,VWS V14.00,2013-01-15 06:03:00,
2013-01-15 01:04:00,25.0,25.0,29.93,SE,135,0.0,0.0,100,0.00,,---,0.00,VWS V14.00,2013-01-15 06:04:00,
2013-01-15 01:05:00,37.0,26.0,30.25,WSW,247,0.0,0.0,64,0.00,,---,0.00,VWS V14.00,2013-01-15 06:05:00,
2013-01-15 01:09:00,25.0,25.0,29.94,SE,135,0.0,0.0,100,0.00,,---,0.00,VWS V14.00,2013-01-15 06:09:00,
2013-01-15 01:10:00,37.0,26.0,30.25,WNW,292,0.0,0.0,64,0.00,,---,0.00,VWS V14.00,2013-01-15 06:10:00,
2013-01-15 01:12:00,25.0,25.0,29.94,SE,135,0.0,0.0,100,0.00,,---,0.00,VWS V14.00,2013-01-15 06:12:00,
2013-01-15 01:13:00,25.0,25.0,29.94,SE,135,0.0,0.0,100,0.00,,---,0.00,VWS V14.00,2013-01-15 06:13:00,
2013-01-15 01:14:00,25.0,25.0,29.94,SE,135,0.0,0.0,100,0.00,,---,0.00,VWS V14.00,2013-01-15 06:14:00,
2013-01-15 01:15:00,37.0,26.0,30.25,WNW,292,0.0,0.0,64,0.00,,---,0.00,VWS V14.00,2013-01-15 06:15:00,
2013-01-15 01:19:00,25.0,25.0,29.95,SE,135,0.0,0.0,100,0.00,,---,0.00,VWS V14.00,2013-01-15 06:19:00,
2013-01-15 01:20:00,37.0,26.3,30.25,WNW,292,0.0,0.0,65,0.00,,---,0.00,VWS V14.00,2013-01-15 06:20:00,
2013-01-15 01:25:00,37.0,26.7,30.25,WNW,292,0.0,0.0,66,0.00,,---,0.00,VWS V14.00,2013-01-15 06:25:00,
2013-01-15 01:26:00,26.0,26.0,29.95,SE,135,0.0,0.0,100,0.00,,---,0.00,VWS V14.00,2013-01-15 06:26:00,
2013-01-15 01:27:00,26.0,26.0,29.95,SE,135,0.0,0.0,100,0.00,,---,0.00,VWS V14.00,2013-01-15 06:27:00,
2013-01-15 01:28:00,26.0,26.0,29.95,SE,135,0.0,0.0,100,0.00,,---,0.00,VWS V14.00,2013-01-15 06:28:00,
2013-01-15 01:30:00,37.0,26.7,30.26,WNW,292,0.0,0.0,66,0.00,,---,0.00,VWS V14.00,2013-01-15 06:30:00,
2013-01-15 01:32:00,26.0,26.0,29.95,SE,135,0.0,0.0,100,0.00,,---,0.00,VWS V14.00,2013-01-15 06:32:00,
2013-01-15 01:33:00,26.0,26.0,29.95,SE,135,0.0,0.0,100,0.00,,---,0.00,VWS V14.00,2013-01-15 06:33:00,
2013-01-15 01:34:00,26.0,26.0,29.95,SE,135,0.0,0.0,100,0.00,,---,0.00,VWS V14.00,2013-01-15 06:34:00,
2013-01-15 01:35:00,37.0,26.0,30.26,WNW,292,0.0,0.0,64,0.00,,---,0.00,VWS V14.00,2013-01-15 06:35:00,
2013-01-15 01:40:00,37.0,26.3,30.28,WNW,292,0.0,0.0,65,0.00,,---,0.00,VWS V14.00,2013-01-15 06:40:00,
2013-01-15 01:45:00,37.0,26.0,30.28,SE,135,0.0,0.0,64,0.00,,---,0.00,VWS V14.00,2013-01-15 06:45:00,
2013-01-15 01:50:00,37.0,25.6,30.27,NW,315,0.0,0.0,63,0.00,,---,0.00,VWS V14.00,2013-01-15 06:50:00,
2013-01-15 01:55:00,37.0,25.6,30.27,NW,315,0.0,0.0,63,0.00,,---,0.00,VWS V14.00,2013-01-15 06:55:00,
2013-01-15 02:00:00,37.0,26.0,30.26,NW,315,0.0,0.0,64,0.00,,---,0.00,VWS V14.00,2013-01-15 07:00:00,
2013-01-15 02:05:00,37.0,26.0,30.26,NW,315,0.0,0.0,64,0.00,,---,0.00,VWS V14.00,2013-01-15 07:05:00,
2013-01-15 02:10:00,36.0,25.4,30.27,NW,315,0.0,0.0,65,0.00,,---,0.00,VWS V14.00,2013-01-15 07:10:00,
2013-01-15 02:15:00,36.0,25.4,30.27,NW,315,0.0,0.0,65,0.00,,---,0.00,VWS V14.00,2013-01-15 07:15:00,
2013-01-15 02:20:00,36.0,25.0,30.27,East,90,0.0,0.0,64,0.00,,---,0.00,VWS V14.00,2013-01-15 07:20:00,
2013-01-15 02:25:00,36.0,25.0,30.27,East,90,0.0,0.0,64,0.00,,---,0.00,VWS V14.00,2013-01-15 07:25:00,
2013-01-15 02:30:00,36.0,25.4,30.26,East,90,0.0,0.0,65,0.00,,---,0.00,VWS V14.00,2013-01-15 07:30:00,
2013-01-15 02:35:00,36.0,25.4,30.26,East,90,0.0,0.0,65,0.00,,---,0.00,VWS V14.00,2013-01-15 07:35:00,
2013-01-15 02:40:00,36.0,25.4,30.25,East,90,0.0,0.0,65,0.00,,---,0.00,VWS V14.00,2013-01-15 07:40:00,
2013-01-15 02:45:00,36.0,25.8,30.25,East,90,0.0,0.0,66,0.00,,---,0.00,VWS V14.00,2013-01-15 07:45:00,
2013-01-15 02:50:00,36.0,25.8,30.25,East,90,0.0,0.0,66,0.00,,---,0.00,VWS V14.00,2013-01-15 07:50:00,
2013-01-15 02:55:00,35.0,24.4,30.25,East,90,0.0,0.0,65,0.00,,---,0.00,VWS V14.00,2013-01-15 07:55:00,
2013-01-15 03:00:00,35.0,24.4,30.24,East,90,0.0,0.0,65,0.00,,---,0.00,VWS V14.00,2013-01-15 08:00:00,
2013-01-15 03:05:00,35.0,24.8,30.24,East,90,0.0,0.0,66,0.00,,---,0.00,VWS V14.00,2013-01-15 08:05:00,
2013-01-15 03:10:00,35.0,24.8,30.25,East,90,0.0,0.0,66,0.00,,---,0.00,VWS V14.00,2013-01-15 08:10:00,
2013-01-15 03:15:00,35.0,24.8,30.25,East,90,0.0,0.0,66,0.00,,---,0.00,VWS V14.00,2013-01-15 08:15:00,
2013-01-15 03:20:00,35.0,25.2,30.24,East,90,0.0,0.0,67,0.00,,---,0.00,VWS V14.00,2013-01-15 08:20:00,
2013-01-15 03:25:00,35.0,25.2,30.24,East,90,0.0,0.0,67,0.00,,---,0.00,VWS V14.00,2013-01-15 08:25:00,
2013-01-15 03:30:00,35.0,25.5,30.24,East,90,0.0,0.0,68,0.00,,---,0.00,VWS V14.00,2013-01-15 08:30:00,
2013-01-15 03:35:00,35.0,25.9,30.24,East,90,0.0,0.0,69,0.00,,---,0.00,VWS V14.00,2013-01-15 08:35:00,
2013-01-15 03:40:00,35.0,25.5,30.25,East,90,0.0,0.0,68,0.00,,---,0.00,VWS V14.00,2013-01-15 08:40:00,
2013-01-15 03:45:00,35.0,25.2,30.25,East,90,0.0,0.0,67,0.00,,---,0.00,VWS V14.00,2013-01-15 08:45:00,
2013-01-15 03:50:00,35.0,25.9,30.26,East,90,0.0,0.0,69,0.00,,---,0.00,VWS V14.00,2013-01-15 08:50:00,
2013-01-15 03:55:00,35.0,26.6,30.26,East,90,0.0,0.0,71,0.00,,---,0.00,VWS V14.00,2013-01-15 08:55:00,
2013-01-15 04:00:00,35.0,26.6,30.23,East,90,0.0,0.0,71,0.00,,---,0.00,VWS V14.00,2013-01-15 09:00:00,
2013-01-15 04:05:00,35.0,26.6,30.23,East,90,0.0,0.0,71,0.00,,---,0.00,VWS V14.00,2013-01-15 09:05:00,
2013-01-15 04:10:00,35.0,26.6,30.25,East,90,0.0,0.0,71,0.00,,---,0.00,VWS V14.00,2013-01-15 09:10:00,
2013-01-15 04:15:00,35.0,26.6,30.25,East,90,0.0,0.0,71,0.00,,---,0.00,VWS V14.00,2013-01-15 09:15:00,
2013-01-15 04:20:00,35.0,26.6,30.24,East,90,0.0,0.0,71,0.00,,---,0.00,VWS V14.00,2013-01-15 09:20:00,
2013-01-15 04:25:00,35.0,26.2,30.24,East,90,0.0,0.0,70,0.00,,---,0.00,VWS V14.00,2013-01-15 09:25:00,
2013-01-15 04:30:00,35.0,26.2,30.23,East,90,0.0,0.0,70,0.00,,---,0.00,VWS V14.00,2013-01-15 09:30:00,
2013-01-15 04:35:00,35.0,25.9,30.23,East,90,0.0,0.0,69,0.00,,---,0.00,VWS V14.00,2013-01-15 09:35:00,
2013-01-15 04:40:00,35.0,26.2,30.23,East,90,0.0,0.0,70,0.00,,---,0.00,VWS V14.00,2013-01-15 09:40:00,
2013-01-15 04:44:00,37.0,34.9,29.92,South,180,0.0,0.0,92,0.02,,---,0.02,VWS V14.00,2013-01-15 09:44:00,
2013-01-15 04:45:00,34.0,24.9,30.23,East,90,0.0,0.0,69,0.00,,---,0.00,VWS V14.00,2013-01-15 09:45:00,
2013-01-15 04:46:00,38.0,35.6,29.92,SW,225,0.0,0.0,91,0.02,,---,0.03,VWS V14.00,2013-01-15 09:46:00,
2013-01-15 04:47:00,38.0,35.6,29.92,SW,225,0.0,0.0,91,0.03,,---,0.03,VWS V14.00,2013-01-15 09:47:00,
2013-01-15 04:50:00,34.0,24.9,30.23,East,90,0.0,0.0,69,0.00,,---,0.00,VWS V14.00,2013-01-15 09:50:00,
2013-01-15 04:55:00,34.0,24.9,30.23,East,90,0.0,0.0,69,0.00,,---,0.00,VWS V14.00,2013-01-15 09:55:00,
2013-01-15 05:00:00,34.0,24.9,30.24,East,90,0.0,0.0,69,0.00,,---,0.00,VWS V14.00,2013-01-15 10:00:00,
2013-01-15 05:05:00,34.0,24.9,30.24,East,90,0.0,0.0,69,0.00,,---,0.00,VWS V14.00,2013-01-15 10:05:00,
2013-01-15 05:10:00,33.0,24.3,30.25,East,90,0.0,0.0,70,0.00,,---,0.00,VWS V14.00,2013-01-15 10:10:00,
2013-01-15 05:15:00,33.0,24.3,30.25,East,90,0.0,0.0,70,0.00,,---,0.00,VWS V14.00,2013-01-15 10:15:00,
2013-01-15 05:20:00,33.0,24.3,30.25,East,90,0.0,0.0,70,0.00,,---,0.00,VWS V14.00,2013-01-15 10:20:00,
2013-01-15 05:25:00,32.0,24.0,30.25,East,90,0.0,0.0,72,0.00,,---,0.00,VWS V14.00,2013-01-15 10:25:00,
2013-01-15 05:30:00,32.0,24.0,30.24,East,90,0.0,0.0,72,0.00,,---,0.00,VWS V14.00,2013-01-15 10:30:00,
2013-01-15 05:35:00,32.0,24.0,30.24,East,90,0.0,0.0,72,0.00,,---,0.00,VWS V14.00,2013-01-15 10:35:00,
2013-01-15 05:40:00,32.0,24.0,30.25,East,90,0.0,0.0,72,0.00,,---,0.00,VWS V14.00,2013-01-15 10:40:00,
2013-01-15 05:45:00,31.0,23.4,30.25,East,90,0.0,0.0,73,0.00,,---,0.00,VWS V14.00,2013-01-15 10:45:00,
2013-01-15 05:50:00,31.0,23.4,30.25,East,90,0.0,0.0,73,0.00,,---,0.00,VWS V14.00,2013-01-15 10:50:00,
2013-01-15 05:55:00,31.0,23.4,30.25,East,90,0.0,0.0,73,0.00,,---,0.00,VWS V14.00,2013-01-15 10:55:00,
2013-01-15 06:00:00,31.0,23.7,30.25,East,90,0.0,0.0,74,0.00,,---,0.00,VWS V14.00,2013-01-15 11:00:00,
2013-01-15 06:05:00,31.0,23.7,30.25,East,90,0.0,0.0,74,0.00,,---,0.00,VWS V14.00,2013-01-15 11:05:00,
2013-01-15 06:10:00,31.0,23.7,30.26,East,90,0.0,0.0,74,0.00,,---,0.00,VWS V14.00,2013-01-15 11:10:00,
2013-01-15 06:15:00,31.0,23.7,30.26,East,90,0.0,0.0,74,0.00,,---,0.00,VWS V14.00,2013-01-15 11:15:00,
2013-01-15 06:20:00,30.0,23.0,30.28,East,90,0.0,0.0,75,0.00,,---,0.00,VWS V14.00,2013-01-15 11:20:00,
2013-01-15 06:25:00,30.0,23.0,30.28,East,90,0.0,0.0,75,0.00,,---,0.00,VWS V14.00,2013-01-15 11:25:00,
2013-01-15 06:30:00,30.0,23.0,30.29,East,90,0.0,0.0,75,0.00,,---,0.00,VWS V14.00,2013-01-15 11:30:00,
2013-01-15 06:35:00,30.0,23.7,30.29,East,90,0.0,0.0,77,0.00,,---,0.00,VWS V14.00,2013-01-15 11:35:00,
2013-01-15 06:40:00,30.0,23.7,30.29,East,90,0.0,0.0,77,0.00,,---,0.00,VWS V14.00,2013-01-15 11:40:00,
2013-01-15 06:45:00,30.0,23.7,30.29,East,90,0.0,0.0,77,0.00,,---,0.00,VWS V14.00,2013-01-15 11:45:00,
2013-01-15 06:50:00,30.0,24.0,30.30,East,90,0.0,0.0,78,0.00,,---,0.00,VWS V14.00,2013-01-15 11:50:00,
2013-01-15 06:55:00,29.0,23.0,30.30,East,90,0.0,0.0,78,0.00,,---,0.00,VWS V14.00,2013-01-15 11:55:00,
2013-01-15 07:00:00,29.0,23.0,30.30,East,90,0.0,0.0,78,0.00,,---,0.00,VWS V14.00,2013-01-15 12:00:00,
2013-01-15 07:05:00,29.0,23.3,30.30,East,90,0.0,0.0,79,0.00,,---,0.00,VWS V14.00,2013-01-15 12:05:00,
2013-01-15 07:10:00,29.0,23.3,30.31,East,90,0.0,0.0,79,0.00,,---,0.00,VWS V14.00,2013-01-15 12:10:00,
2013-01-15 07:15:00,28.0,22.3,30.31,East,90,0.0,0.0,79,0.00,,---,0.00,VWS V14.00,2013-01-15 12:15:00,
2013-01-15 07:20:00,28.0,22.6,30.31,East,90,0.0,0.0,80,0.00,,---,0.00,VWS V14.00,2013-01-15 12:20:00,
2013-01-15 07:25:00,29.0,23.6,30.31,East,90,0.0,0.0,80,0.00,,---,0.00,VWS V14.00,2013-01-15 12:25:00,
2013-01-15 07:30:00,29.0,23.6,30.32,East,90,0.0,0.0,80,0.00,,---,0.00,VWS V14.00,2013-01-15 12:30:00,
2013-01-15 07:35:00,29.0,23.6,30.32,East,90,0.0,0.0,80,0.00,,---,0.00,VWS V14.00,2013-01-15 12:35:00,
2013-01-15 07:40:00,28.0,22.6,30.33,East,90,0.0,0.0,80,0.00,,---,0.00,VWS V14.00,2013-01-15 12:40:00,
2013-01-15 07:45:00,28.0,22.6,30.33,East,90,0.0,0.0,80,0.00,,---,0.00,VWS V14.00,2013-01-15 12:45:00,
2013-01-15 07:50:00,28.0,22.6,30.33,East,90,0.0,0.0,80,0.00,,---,0.00,VWS V14.00,2013-01-15 12:50:00,
2013-01-15 07:55:00,28.0,22.6,30.33,East,90,0.0,0.0,80,0.00,,---,0.00,VWS V14.00,2013-01-15 12:55:00,
2013-01-15 08:00:00,28.0,22.9,30.33,East,90,0.0,0.0,81,0.00,,---,0.00,VWS V14.00,2013-01-15 13:00:00,
2013-01-15 08:05:00,28.0,22.9,30.33,East,90,0.0,0.0,81,0.00,,---,0.00,VWS V14.00,2013-01-15 13:05:00,
2013-01-15 08:10:00,28.0,22.9,30.33,East,90,0.0,0.0,81,0.00,,---,0.00,VWS V14.00,2013-01-15 13:10:00,
2013-01-15 08:15:00,28.0,23.2,30.33,East,90,0.0,0.0,82,0.00,,---,0.00,VWS V14.00,2013-01-15 13:15:00,
2013-01-15 08:20:00,29.0,24.2,30.33,East,90,0.0,0.0,82,0.00,,---,0.00,VWS V14.00,2013-01-15 13:20:00,
2013-01-15 08:25:00,29.0,24.2,30.33,East,90,0.0,0.0,82,0.00,,---,0.00,VWS V14.00,2013-01-15 13:25:00,
2013-01-15 08:30:00,29.0,24.2,30.33,East,90,0.0,0.0,82,0.00,,---,0.00,VWS V14.00,2013-01-15 13:30:00,
2013-01-15 08:35:00,30.0,25.2,30.33,East,90,0.0,0.0,82,0.00,,---,0.00,VWS V14.00,2013-01-15 13:35:00,
2013-01-15 08:40:00,30.0,25.2,30.34,East,90,0.0,0.0,82,0.00,,---,0.00,VWS V14.00,2013-01-15 13:40:00,
2013-01-15 08:45:00,30.0,24.9,30.34,East,90,0.0,0.0,81,0.00,,---,0.00,VWS V14.00,2013-01-15 13:45:00,
2013-01-15 08:50:00,31.0,25.6,30.33,East,90,0.0,0.0,80,0.00,,---,0.00,VWS V14.00,2013-01-15 13:50:00,
2013-01-15 08:55:00,32.0,26.5,30.33,East,90,0.0,0.0,80,0.00,,---,0.00,VWS V14.00,2013-01-15 13:55:00,
2013-01-15 09:00:00,33.0,26.9,30.33,East,90,0.0,0.0,78,0.00,,---,0.00,VWS V14.00,2013-01-15 14:00:00,
2013-01-15 09:05:00,35.0,27.9,30.33,East,90,0.0,0.0,75,0.00,,---,0.00,VWS V14.00,2013-01-15 14:05:00,
2013-01-15 09:10:00,36.0,28.2,30.31,East,90,0.0,0.0,73,0.00,,---,0.00,VWS V14.00,2013-01-15 14:10:00,
2013-01-15 09:15:00,38.0,28.8,30.31,East,90,0.0,0.0,69,0.00,,---,0.00,VWS V14.00,2013-01-15 14:15:00,
2013-01-15 09:20:00,38.0,28.4,30.29,East,90,0.0,0.0,68,0.00,,---,0.00,VWS V14.00,2013-01-15 14:20:00,
2013-01-15 09:25:00,39.0,28.6,30.29,WSW,247,0.0,0.0,66,0.00,,---,0.00,VWS V14.00,2013-01-15 14:25:00,
2013-01-15 09:30:00,40.0,29.6,30.28,WSW,247,0.0,0.0,66,0.00,,---,0.00,VWS V14.00,2013-01-15 14:30:00,
2013-01-15 09:35:00,41.0,29.4,30.28,SW,225,0.0,0.0,63,0.00,,---,0.00,VWS V14.00,2013-01-15 14:35:00,
2013-01-15 09:40:00,41.0,28.2,30.26,SSE,157,0.0,0.0,60,0.00,,---,0.00,VWS V14.00,2013-01-15 14:40:00,
2013-01-15 09:45:00,41.0,28.2,30.26,East,90,0.0,0.0,60,0.00,,---,0.00,VWS V14.00,2013-01-15 14:45:00,
2013-01-15 09:50:00,42.0,29.1,30.26,East,90,0.0,0.0,60,0.00,,---,0.00,VWS V14.00,2013-01-15 14:50:00,
2013-01-15 09:55:00,42.0,27.5,30.26,SW,225,0.0,0.0,56,0.00,,---,0.00,VWS V14.00,2013-01-15 14:55:00,
2013-01-15 10:00:00,42.0,27.5,30.25,SSW,202,0.0,0.0,56,0.00,,---,0.00,VWS V14.00,2013-01-15 15:00:00,
2013-01-15 10:05:00,43.0,28.0,30.25,WSW,247,0.0,0.0,55,0.00,,---,0.00,VWS V14.00,2013-01-15 15:05:00,
2013-01-15 10:10:00,43.0,26.1,30.25,NE,45,0.0,0.0,51,0.00,,---,0.00,VWS V14.00,2013-01-15 15:10:00,
2013-01-15 10:15:00,44.0,28.0,30.25,NW,315,0.0,0.0,53,0.00,,---,0.00,VWS V14.00,2013-01-15 15:15:00,
2013-01-15 10:20:00,44.0,25.6,30.25,ENE,67,0.0,0.0,48,0.00,,---,0.00,VWS V14.00,2013-01-15 15:20:00,
2013-01-15 10:25:00,44.0,26.6,30.25,SE,135,0.0,0.0,50,0.00,,---,0.00,VWS V14.00,2013-01-15 15:25:00,
2013-01-15 10:30:00,44.0,25.1,30.25,East,90,0.0,0.0,47,0.00,,---,0.00,VWS V14.00,2013-01-15 15:30:00,
2013-01-15 10:35:00,43.0,23.6,30.25,ENE,67,0.0,0.0,46,0.00,,---,0.00,VWS V14.00,2013-01-15 15:35:00,
2013-01-15 10:40:00,44.0,27.0,30.25,ENE,67,0.0,0.0,51,0.00,,---,0.00,VWS V14.00,2013-01-15 15:40:00,
2013-01-15 10:45:00,44.0,25.6,30.25,ENE,67,0.0,0.0,48,0.00,,---,0.00,VWS V14.00,2013-01-15 15:45:00,
2013-01-15 10:50:00,44.0,25.6,30.23,East,90,0.0,0.0,48,0.00,,---,0.00,VWS V14.00,2013-01-15 15:50:00,
2013-01-15 10:55:00,44.0,25.6,30.23,East,90,0.0,0.0,48,0.00,,---,0.00,VWS V14.00,2013-01-15 15:55:00,
2013-01-15 11:00:00,43.0,22.6,30.22,NE,45,0.0,0.0,44,0.00,,---,0.00,VWS V14.00,2013-01-15 16:00:00,
2013-01-15 11:05:00,43.0,23.6,30.22,South,180,0.0,0.0,46,0.00,,---,0.00,VWS V14.00,2013-01-15 16:05:00,
2013-01-15 11:10:00,43.0,23.6,30.22,WSW,247,0.0,0.0,46,0.00,,---,0.00,VWS V14.00,2013-01-15 16:10:00,
2013-01-15 11:15:00,43.0,24.2,30.22,WSW,247,0.0,0.0,47,0.00,,---,0.00,VWS V14.00,2013-01-15 16:15:00,
2013-01-15 11:20:00,43.0,25.6,30.22,WSW,247,0.0,0.0,50,0.00,,---,0.00,VWS V14.00,2013-01-15 16:20:00,
2013-01-15 11:25:00,43.0,25.2,30.22,WNW,292,0.0,0.0,49,0.00,,---,0.00,VWS V14.00,2013-01-15 16:25:00,
2013-01-15 11:30:00,43.0,24.2,30.23,WNW,292,0.0,0.0,47,0.00,,---,0.00,VWS V14.00,2013-01-15 16:30:00,
2013-01-15 11:35:00,43.0,25.2,30.23,WNW,292,0.0,0.0,49,0.00,,---,0.00,VWS V14.00,2013-01-15 16:35:00,
2013-01-15 11:40:00,43.0,25.6,30.22,WNW,292,0.0,0.0,50,0.00,,---,0.00,VWS V14.00,2013-01-15 16:40:00,
2013-01-15 11:45:00,43.0,24.2,30.22,East,90,0.0,0.0,47,0.00,,---,0.00,VWS V14.00,2013-01-15 16:45:00,
2013-01-15 11:50:00,43.0,24.7,30.22,North,360,0.0,0.0,48,0.00,,---,0.00,VWS V14.00,2013-01-15 16:50:00,
2013-01-15 11:55:00,43.0,25.2,30.22,South,180,0.0,0.0,49,0.00,,---,0.00,VWS V14.00,2013-01-15 16:55:00,
2013-01-15 12:00:00,43.0,23.6,30.22,SE,135,0.0,0.0,46,0.00,,---,0.00,VWS V14.00,2013-01-15 17:00:00,
2013-01-15 12:05:00,43.0,24.2,30.22,SSE,157,0.0,0.0,47,0.00,,---,0.00,VWS V14.00,2013-01-15 17:05:00,
2013-01-15 12:10:00,43.0,23.6,30.22,SSW,202,0.0,0.0,46,0.00,,---,0.00,VWS V14.00,2013-01-15 17:10:00,
2013-01-15 12:15:00,43.0,24.2,30.22,South,180,0.0,0.0,47,0.00,,---,0.00,VWS V14.00,2013-01-15 17:15:00,
2013-01-15 12:20:00,44.0,25.1,30.21,North,360,0.0,0.0,47,0.00,,---,0.00,VWS V14.00,2013-01-15 17:20:00,
2013-01-15 12:25:00,43.0,23.6,30.21,East,90,0.0,0.0,46,0.00,,---,0.00,VWS V14.00,2013-01-15 17:25:00,
2013-01-15 12:30:00,43.0,22.6,30.22,East,90,0.0,0.0,44,0.00,,---,0.00,VWS V14.00,2013-01-15 17:30:00,
2013-01-15 12:35:00,43.0,24.2,30.22,ESE,112,0.0,0.0,47,0.00,,---,0.00,VWS V14.00,2013-01-15 17:35:00,
2013-01-15 12:40:00,42.0,22.7,30.21,SW,225,0.0,0.0,46,0.00,,---,0.00,VWS V14.00,2013-01-15 17:40:00,
2013-01-15 12:45:00,42.0,22.7,30.21,SSW,202,0.0,0.0,46,0.00,,---,0.00,VWS V14.00,2013-01-15 17:45:00,
2013-01-15 12:50:00,42.0,22.7,30.21,South,180,0.0,0.0,46,0.00,,---,0.00,VWS V14.00,2013-01-15 17:50:00,
2013-01-15 12:55:00,42.0,23.2,30.21,South,180,0.0,0.0,47,0.00,,---,0.00,VWS V14.00,2013-01-15 17:55:00,
2013-01-15 13:00:00,41.0,22.3,30.22,South,180,0.0,0.0,47,0.00,,---,0.00,VWS V14.00,2013-01-15 18:00:00,
2013-01-15 13:05:00,41.0,22.8,30.22,South,180,0.0,0.0,48,0.00,,---,0.00,VWS V14.00,2013-01-15 18:05:00,
2013-01-15 13:10:00,41.0,22.8,30.23,South,180,0.0,0.0,48,0.00,,---,0.00,VWS V14.00,2013-01-15 18:10:00,
2013-01-15 13:15:00,41.0,23.3,30.23,South,180,0.0,0.0,49,0.00,,---,0.00,VWS V14.00,2013-01-15 18:15:00,
2013-01-15 13:20:00,41.0,22.3,30.23,SSW,202,0.0,0.0,47,0.00,,---,0.00,VWS V14.00,2013-01-15 18:20:00,
2013-01-15 13:25:00,41.0,22.8,30.23,SSW,202,0.0,0.0,48,0.00,,---,0.00,VWS V14.00,2013-01-15 18:25:00,
2013-01-15 13:30:00,41.0,22.8,30.23,South,180,0.0,0.0,48,0.00,,---,0.00,VWS V14.00,2013-01-15 18:30:00,
2013-01-15 13:35:00,41.0,23.3,30.23,South,180,0.0,0.0,49,0.00,,---,0.00,VWS V14.00,2013-01-15 18:35:00,
2013-01-15 13:40:00,41.0,22.3,30.23,South,180,0.0,0.0,47,0.00,,---,0.00,VWS V14.00,2013-01-15 18:40:00,
2013-01-15 13:45:00,41.0,23.8,30.23,South,180,0.0,0.0,50,0.00,,---,0.00,VWS V14.00,2013-01-15 18:45:00,
2013-01-15 13:50:00,41.0,23.3,30.23,South,180,0.0,0.0,49,0.00,,---,0.00,VWS V14.00,2013-01-15 18:50:00,
2013-01-15 13:55:00,41.0,23.3,30.23,South,180,0.0,0.0,49,0.00,,---,0.00,VWS V14.00,2013-01-15 18:55:00,
2013-01-15 14:00:00,41.0,23.3,30.23,South,180,0.0,0.0,49,0.00,,---,0.00,VWS V14.00,2013-01-15 19:00:00,
2013-01-15 14:05:00,41.0,23.3,30.23,South,180,0.0,0.0,49,0.00,,---,0.00,VWS V14.00,2013-01-15 19:05:00,
2013-01-15 14:10:00,41.0,23.3,30.23,South,180,0.0,0.0,49,0.00,,---,0.00,VWS V14.00,2013-01-15 19:10:00,
2013-01-15 14:15:00,41.0,22.8,30.23,SSW,202,0.0,0.0,48,0.00,,---,0.00,VWS V14.00,2013-01-15 19:15:00,
2013-01-15 14:20:00,41.0,22.3,30.23,SSE,157,0.0,0.0,47,0.00,,---,0.00,VWS V14.00,2013-01-15 19:20:00,
2013-01-15 14:24:00,41.0,23.8,30.23,SE,135,0.0,0.0,50,0.00,,---,0.00,VWS V14.00,2013-01-15 19:24:00,
2013-01-15 14:29:00,41.0,24.3,30.23,SE,135,0.0,0.0,51,0.00,,---,0.00,VWS V14.00,2013-01-15 19:29:00,
2013-01-15 14:34:00,41.0,24.3,30.23,SE,135,0.0,0.0,51,0.00,,---,0.00,VWS V14.00,2013-01-15 19:34:00,
2013-01-15 14:39:00,41.0,23.8,30.23,SSW,202,0.0,0.0,50,0.00,,---,0.00,VWS V14.00,2013-01-15 19:39:00,
2013-01-15 14:44:00,41.0,23.3,30.23,SSW,202,0.0,0.0,49,0.00,,---,0.00,VWS V14.00,2013-01-15 19:44:00,
2013-01-15 14:49:00,41.0,22.8,30.23,SE,135,0.0,0.0,48,0.00,,---,0.00,VWS V14.00,2013-01-15 19:49:00,
2013-01-15 14:54:00,40.0,22.4,30.23,SE,135,0.0,0.0,49,0.00,,---,0.00,VWS V14.00,2013-01-15 19:54:00,
2013-01-15 14:59:00,40.0,22.4,30.23,SE,135,0.0,0.0,49,0.00,,---,0.00,VWS V14.00,2013-01-15 19:59:00,
2013-01-15 15:04:00,40.0,23.4,30.23,SE,135,0.0,0.0,51,0.00,,---,0.00,VWS V14.00,2013-01-15 20:04:00,
2013-01-15 15:09:00,40.0,23.4,30.23,SE,135,0.0,0.0,51,0.00,,---,0.00,VWS V14.00,2013-01-15 20:09:00,
2013-01-15 15:14:00,40.0,22.4,30.23,SE,135,0.0,0.0,49,0.00,,---,0.00,VWS V14.00,2013-01-15 20:14:00,
2013-01-15 15:19:00,40.0,23.8,30.23,SE,135,0.0,0.0,52,0.00,,---,0.00,VWS V14.00,2013-01-15 20:19:00,
2013-01-15 15:24:00,40.0,23.4,30.23,SE,135,0.0,0.0,51,0.00,,---,0.00,VWS V14.00,2013-01-15 20:24:00,
2013-01-15 15:29:00,39.0,22.9,30.22,SE,135,0.0,0.0,52,0.00,,---,0.00,VWS V14.00,2013-01-15 20:29:00,
2013-01-15 15:34:00,39.0,22.9,30.22,SE,135,0.0,0.0,52,0.00,,---,0.00,VWS V14.00,2013-01-15 20:34:00,
2013-01-15 15:39:00,39.0,22.9,30.21,SE,135,0.0,0.0,52,0.00,,---,0.00,VWS V14.00,2013-01-15 20:39:00,
2013-01-15 15:44:00,39.0,22.9,30.21,SE,135,0.0,0.0,52,0.00,,---,0.00,VWS V14.00,2013-01-15 20:44:00,
2013-01-15 15:49:00,39.0,23.3,30.23,SE,135,0.0,0.0,53,0.00,,---,0.00,VWS V14.00,2013-01-15 20:49:00,
2013-01-15 15:54:00,39.0,23.8,30.23,SE,135,0.0,0.0,54,0.00,,---,0.00,VWS V14.00,2013-01-15 20:54:00,
2013-01-15 15:59:00,39.0,23.8,30.22,SE,135,0.0,0.0,54,0.00,,---,0.00,VWS V14.00,2013-01-15 20:59:00,
2013-01-15 16:04:00,38.0,22.9,30.22,SE,135,0.0,0.0,54,0.00,,---,0.00,VWS V14.00,2013-01-15 21:04:00,
2013-01-15 16:09:00,38.0,22.9,30.23,SE,135,0.0,0.0,54,0.00,,---,0.00,VWS V14.00,2013-01-15 21:09:00,
2013-01-15 16:14:00,38.0,23.3,30.23,SE,135,0.0,0.0,55,0.00,,---,0.00,VWS V14.00,2013-01-15 21:14:00,
2013-01-15 16:19:00,38.0,22.9,30.23,SE,135,0.0,0.0,54,0.00,,---,0.00,VWS V14.00,2013-01-15 21:19:00,
2013-01-15 16:24:00,38.0,22.9,30.23,SE,135,0.0,0.0,54,0.00,,---,0.00,VWS V14.00,2013-01-15 21:24:00,
2013-01-15 16:29:00,37.0,22.4,30.24,SE,135,0.0,0.0,55,0.00,,---,0.00,VWS V14.00,2013-01-15 21:29:00,
2013-01-15 16:34:00,37.0,22.4,30.24,SE,135,0.0,0.0,55,0.00,,---,0.00,VWS V14.00,2013-01-15 21:34:00,
2013-01-15 16:39:00,37.0,22.8,30.25,SE,135,0.0,0.0,56,0.00,,---,0.00,VWS V14.00,2013-01-15 21:39:00,
2013-01-15 16:44:00,37.0,23.2,30.25,SE,135,0.0,0.0,57,0.00,,---,0.00,VWS V14.00,2013-01-15 21:44:00,
2013-01-15 16:49:00,36.0,22.7,30.26,SE,135,0.0,0.0,58,0.00,,---,0.00,VWS V14.00,2013-01-15 21:49:00,
2013-01-15 16:54:00,36.0,22.7,30.26,SE,135,0.0,0.0,58,0.00,,---,0.00,VWS V14.00,2013-01-15 21:54:00,
2013-01-15 16:59:00,36.0,22.7,30.26,SE,135,0.0,0.0,58,0.00,,---,0.00,VWS V14.00,2013-01-15 21:59:00,
2013-01-15 17:04:00,36.0,22.7,30.26,SE,135,0.0,0.0,58,0.00,,---,0.00,VWS V14.00,2013-01-15 22:04:00,
2013-01-15 17:09:00,35.0,21.7,30.26,SE,135,0.0,0.0,58,0.00,,---,0.00,VWS V14.00,2013-01-15 22:09:00,
2013-01-15 17:14:00,35.0,22.1,30.26,SE,135,0.0,0.0,59,0.00,,---,0.00,VWS V14.00,2013-01-15 22:14:00,
2013-01-15 17:19:00,35.0,22.5,30.26,SE,135,0.0,0.0,60,0.00,,---,0.00,VWS V14.00,2013-01-15 22:19:00,
2013-01-15 17:24:00,35.0,22.5,30.26,SE,135,0.0,0.0,60,0.00,,---,0.00,VWS V14.00,2013-01-15 22:24:00,
2013-01-15 17:29:00,35.0,22.5,30.27,SE,135,0.0,0.0,60,0.00,,---,0.00,VWS V14.00,2013-01-15 22:29:00,
2013-01-15 17:34:00,35.0,22.5,30.27,SE,135,0.0,0.0,60,0.00,,---,0.00,VWS V14.00,2013-01-15 22:34:00,
2013-01-15 17:39:00,34.0,22.0,30.27,SE,135,0.0,0.0,61,0.00,,---,0.00,VWS V14.00,2013-01-15 22:39:00,
2013-01-15 17:40:00,26.0,12.1,30.08,SSW,202,0.0,0.0,55,0.00,,---,0.34,VWS V14.00,2013-01-15 22:40:00,
2013-01-15 17:41:00,26.0,12.1,30.08,SSW,202,0.0,0.0,55,0.00,,---,0.34,VWS V14.00,2013-01-15 22:41:00,
2013-01-15 17:42:00,26.0,12.1,30.08,SSW,202,0.0,0.0,55,0.00,,---,0.34,VWS V14.00,2013-01-15 22:42:00,
2013-01-15 17:43:00,26.0,12.1,30.08,SSW,202,0.0,0.0,55,0.00,,---,0.34,VWS V14.00,2013-01-15 22:43:00,
2013-01-15 17:44:00,34.0,22.0,30.27,SE,135,0.0,0.0,61,0.00,,---,0.00,VWS V14.00,2013-01-15 22:44:00,
2013-01-15 17:45:00,26.0,10.8,30.11,ENE,67,0.0,0.0,52,0.00,,---,0.34,VWS V14.00,2013-01-15 22:45:00,
2013-01-15 17:49:00,34.0,22.0,30.27,SE,135,0.0,0.0,61,0.00,,---,0.00,VWS V14.00,2013-01-15 22:49:00,
2013-01-15 17:54:00,34.0,22.0,30.27,SE,135,0.0,0.0,61,0.00,,---,0.00,VWS V14.00,2013-01-15 22:54:00,
2013-01-15 17:59:00,34.0,22.0,30.27,SE,135,0.0,0.0,61,0.00,,---,0.00,VWS V14.00,2013-01-15 22:59:00,
2013-01-15 18:04:00,34.0,22.4,30.27,SE,135,0.0,0.0,62,0.00,,---,0.00,VWS V14.00,2013-01-15 23:04:00,
2013-01-15 18:09:00,33.0,21.4,30.28,SE,135,0.0,0.0,62,0.00,,---,0.00,VWS V14.00,2013-01-15 23:09:00,
2013-01-15 18:14:00,33.0,22.2,30.28,SE,135,0.0,0.0,64,0.00,,---,0.00,VWS V14.00,2013-01-15 23:14:00,
2013-01-15 18:19:00,33.0,22.2,30.28,SE,135,0.0,0.0,64,0.00,,---,0.00,VWS V14.00,2013-01-15 23:19:00,
2013-01-15 18:24:00,33.0,22.2,30.28,SE,135,0.0,0.0,64,0.00,,---,0.00,VWS V14.00,2013-01-15 23:24:00,
2013-01-15 18:29:00,32.0,21.9,30.28,SE,135,0.0,0.0,66,0.00,,---,0.00,VWS V14.00,2013-01-15 23:29:00,
2013-01-15 18:34:00,32.0,22.3,30.28,SE,135,0.0,0.0,67,0.00,,---,0.00,VWS V14.00,2013-01-15 23:34:00,
2013-01-15 18:39:00,32.0,22.3,30.30,SE,135,0.0,0.0,67,0.00,,---,0.00,VWS V14.00,2013-01-15 23:39:00,
2013-01-15 18:44:00,32.0,22.3,30.30,SE,135,0.0,0.0,67,0.00,,---,0.00,VWS V14.00,2013-01-15 23:44:00,
2013-01-15 18:49:00,32.0,22.6,30.29,SE,135,0.0,0.0,68,0.00,,---,0.00,VWS V14.00,2013-01-15 23:49:00,
2013-01-15 18:54:00,32.0,23.0,30.29,SE,135,0.0,0.0,69,0.00,,---,0.00,VWS V14.00,2013-01-15 23:54:00,
2013-01-15 18:59:00,31.0,22.0,30.29,SE,135,0.0,0.0,69,0.00,,---,0.00,VWS V14.00,2013-01-15 23:59:00,
2013-01-15 19:04:00,31.0,22.4,30.29,SE,135,0.0,0.0,70,0.00,,---,0.00,VWS V14.00,2013-01-16 00:04:00,
2013-01-15 19:09:00,31.0,22.4,30.29,SE,135,0.0,0.0,70,0.00,,---,0.00,VWS V14.00,2013-01-16 00:09:00,
2013-01-15 19:14:00,31.0,22.4,30.29,SE,135,0.0,0.0,70,0.00,,---,0.00,VWS V14.00,2013-01-16 00:14:00,
2013-01-15 19:19:00,30.0,21.4,30.29,SE,135,0.0,0.0,70,0.00,,---,0.00,VWS V14.00,2013-01-16 00:19:00,
2013-01-15 19:24:00,30.0,21.8,30.29,SE,135,0.0,0.0,71,0.00,,---,0.00,VWS V14.00,2013-01-16 00:24:00,
2013-01-15 19:29:00,30.0,21.8,30.30,SE,135,0.0,0.0,71,0.00,,---,0.00,VWS V14.00,2013-01-16 00:29:00,
2013-01-15 19:34:00,30.0,21.8,30.30,SE,135,0.0,0.0,71,0.00,,---,0.00,VWS V14.00,2013-01-16 00:34:00,
2013-01-15 19:39:00,30.0,22.1,30.29,SE,135,0.0,0.0,72,0.00,,---,0.00,VWS V14.00,2013-01-16 00:39:00,
2013-01-15 19:44:00,29.0,21.1,30.29,SE,135,0.0,0.0,72,0.00,,---,0.00,VWS V14.00,2013-01-16 00:44:00,
2013-01-15 19:47:00,34.0,9.9,30.35,North,360,0.0,0.0,36,0.00,,---,0.09,VWS V14.00,2013-01-16 00:47:00,
2013-01-15 19:48:00,34.0,9.9,30.35,North,360,0.0,0.0,36,0.00,,---,0.09,VWS V14.00,2013-01-16 00:48:00,
2013-01-15 19:49:00,29.0,21.1,30.29,SE,135,0.0,0.0,72,0.00,,---,0.00,VWS V14.00,2013-01-16 00:49:00,
2013-01-15 19:50:00,24.0,7.2,30.14,North,360,0.0,0.0,48,0.00,,---,0.34,VWS V14.00,2013-01-16 00:50:00,
2013-01-15 19:51:00,24.0,6.7,30.14,North,360,0.0,0.0,47,0.00,,---,0.34,VWS V14.00,2013-01-16 00:51:00,
2013-01-15 19:52:00,24.0,6.7,30.14,North,360,0.0,0.0,47,0.00,,---,0.34,VWS V14.00,2013-01-16 00:52:00,
2013-01-15 19:53:00,24.0,7.2,30.14,North,360,0.0,0.0,48,0.00,,---,0.34,VWS V14.00,2013-01-16 00:53:00,
2013-01-15 19:54:00,29.0,21.1,30.29,SE,135,0.0,0.0,72,0.00,,---,0.00,VWS V14.00,2013-01-16 00:54:00,
2013-01-15 19:55:00,24.0,7.2,30.13,North,360,0.0,0.0,48,0.00,,---,0.34,VWS V14.00,2013-01-16 00:55:00,
2013-01-15 19:59:00,29.0,21.1,30.29,SE,135,0.0,0.0,72,0.00,,---,0.00,VWS V14.00,2013-01-16 00:59:00,
2013-01-15 20:04:00,29.0,21.4,30.29,SE,135,0.0,0.0,73,0.00,,---,0.00,VWS V14.00,2013-01-16 01:04:00,
2013-01-15 20:07:00,36.0,9.0,30.35,North,360,0.0,0.0,32,0.00,,---,0.11,VWS V14.00,2013-01-16 01:07:00,
2013-01-15 20:08:00,36.0,9.0,30.35,North,360,0.0,0.0,32,0.00,,---,0.11,VWS V14.00,2013-01-16 01:08:00,
2013-01-15 20:09:00,29.0,21.4,30.28,SE,135,0.0,0.0,73,0.00,,---,0.00,VWS V14.00,2013-01-16 01:09:00,
2013-01-15 20:10:00,36.0,9.0,30.35,North,360,0.0,0.0,32,0.00,,---,0.11,VWS V14.00,2013-01-16 01:10:00,
2013-01-15 20:11:00,36.0,9.0,30.35,North,360,0.0,0.0,32,0.00,,---,0.11,VWS V14.00,2013-01-16 01:11:00,
2013-01-15 20:12:00,36.0,9.0,30.35,North,360,0.0,0.0,32,0.00,,---,0.11,VWS V14.00,2013-01-16 01:12:00,
2013-01-15 20:14:00,29.0,21.8,30.28,SE,135,0.0,0.0,74,0.00,,---,0.00,VWS V14.00,2013-01-16 01:14:00,
2013-01-15 20:15:00,36.0,9.0,30.35,North,360,0.0,0.0,32,0.00,,---,0.11,VWS V14.00,2013-01-16 01:15:00,
2013-01-15 20:18:00,36.0,4.4,30.34,North,360,0.0,0.0,26,0.00,,---,0.11,VWS V14.00,2013-01-16 01:18:00,
2013-01-15 20:19:00,29.0,21.4,30.29,SE,135,0.0,0.0,73,0.00,,---,0.00,VWS V14.00,2013-01-16 01:19:00,
2013-01-15 20:20:00,36.0,4.4,30.34,North,360,0.0,0.0,26,0.00,,---,0.11,VWS V14.00,2013-01-16 01:20:00,
2013-01-15 20:21:00,36.0,4.4,30.34,North,360,0.0,0.0,26,0.00,,---,0.11,VWS V14.00,2013-01-16 01:21:00,
2013-01-15 20:22:00,36.0,4.4,30.34,North,360,0.0,0.0,26,0.00,,---,0.11,VWS V14.00,2013-01-16 01:22:00,
2013-01-15 20:23:00,24.0,6.2,30.15,WSW,247,0.0,0.0,46,0.00,,---,0.34,VWS V14.00,2013-01-16 01:23:00,
2013-01-15 20:24:00,29.0,21.4,30.29,SE,135,0.0,0.0,73,0.00,,---,0.00,VWS V14.00,2013-01-16 01:24:00,
2013-01-15 20:25:00,24.0,6.2,30.17,SW,225,0.0,0.0,46,0.00,,---,0.34,VWS V14.00,2013-01-16 01:25:00,
2013-01-15 20:26:00,24.0,6.2,30.17,SW,225,0.0,0.0,46,0.00,,---,0.34,VWS V14.00,2013-01-16 01:26:00,
2013-01-15 20:27:00,24.0,6.2,30.17,SW,225,0.0,0.0,46,0.00,,---,0.34,VWS V14.00,2013-01-16 01:27:00,
2013-01-15 20:28:00,23.0,5.8,30.17,SW,225,0.0,0.0,47,0.00,,---,0.34,VWS V14.00,2013-01-16 01:28:00,
2013-01-15 20:29:00,30.0,22.7,30.29,SE,135,0.0,0.0,74,0.00,,---,0.00,VWS V14.00,2013-01-16 01:29:00,
2013-01-15 20:30:00,37.0,9.9,30.34,North,360,0.0,0.0,32,0.00,,---,0.12,VWS V14.00,2013-01-16 01:30:00,
2013-01-15 20:31:00,37.0,9.9,30.34,North,360,0.0,0.0,32,0.00,,---,0.12,VWS V14.00,2013-01-16 01:31:00,
2013-01-15 20:32:00,37.0,9.9,30.34,North,360,0.0,0.0,32,0.00,,---,0.12,VWS V14.00,2013-01-16 01:32:00,
2013-01-15 20:34:00,30.0,23.0,30.29,SE,135,0.0,0.0,75,0.00,,---,0.00,VWS V14.00,2013-01-16 01:34:00,
2013-01-15 20:39:00,30.0,23.0,30.29,SE,135,0.0,0.0,75,0.00,,---,0.00,VWS V14.00,2013-01-16 01:39:00,
2013-01-15 20:44:00,30.0,23.4,30.29,SE,135,0.0,0.0,76,0.00,,---,0.00,VWS V14.00,2013-01-16 01:44:00,
2013-01-15 20:49:00,30.0,23.4,30.28,SE,135,0.0,0.0,76,0.00,,---,0.00,VWS V14.00,2013-01-16 01:49:00,
2013-01-15 20:54:00,30.0,23.7,30.28,SE,135,0.0,0.0,77,0.00,,---,0.00,VWS V14.00,2013-01-16 01:54:00,
2013-01-15 20:59:00,30.0,23.4,30.28,SE,135,0.0,0.0,76,0.00,,---,0.00,VWS V14.00,2013-01-16 01:59:00,
2013-01-15 21:04:00,30.0,23.7,30.28,SE,135,0.0,0.0,77,0.00,,---,0.00,VWS V14.00,2013-01-16 02:04:00,
2013-01-15 21:09:00,29.0,22.7,30.29,SE,135,0.0,0.0,77,0.00,,---,0.00,VWS V14.00,2013-01-16 02:09:00,
2013-01-15 21:14:00,29.0,22.7,30.29,SE,135,0.0,0.0,77,0.00,,---,0.00,VWS V14.00,2013-01-16 02:14:00,
2013-01-15 21:19:00,29.0,23.0,30.28,SE,135,0.0,0.0,78,0.00,,---,0.00,VWS V14.00,2013-01-16 02:19:00,
2013-01-15 21:24:00,30.0,24.0,30.28,SE,135,0.0,0.0,78,0.00,,---,0.00,VWS V14.00,2013-01-16 02:24:00,
2013-01-15 21:29:00,30.0,24.0,30.29,SE,135,0.0,0.0,78,0.00,,---,0.00,VWS V14.00,2013-01-16 02:29:00,
2013-01-15 21:34:00,30.0,24.3,30.29,SE,135,0.0,0.0,79,0.00,,---,0.00,VWS V14.00,2013-01-16 02:34:00,
2013-01-15 21:39:00,29.0,23.3,30.29,SE,135,0.0,0.0,79,0.00,,---,0.00,VWS V14.00,2013-01-16 02:39:00,
2013-01-15 21:44:00,29.0,23.3,30.29,SE,135,0.0,0.0,79,0.00,,---,0.00,VWS V14.00,2013-01-16 02:44:00,
2013-01-15 21:49:00,29.0,23.0,30.29,SE,135,0.0,0.0,78,0.00,,---,0.00,VWS V14.00,2013-01-16 02:49:00,
2013-01-15 21:54:00,29.0,23.0,30.29,SE,135,0.0,0.0,78,0.00,,---,0.00,VWS V14.00,2013-01-16 02:54:00,
2013-01-15 21:59:00,29.0,23.0,30.29,SE,135,0.0,0.0,78,0.00,,---,0.00,VWS V14.00,2013-01-16 02:59:00,
2013-01-15 22:04:00,29.0,23.0,30.29,SE,135,0.0,0.0,78,0.00,,---,0.00,VWS V14.00,2013-01-16 03:04:00,
2013-01-15 22:09:00,29.0,23.0,30.28,SE,135,0.0,0.0,78,0.00,,---,0.00,VWS V14.00,2013-01-16 03:09:00,
2013-01-15 22:14:00,29.0,23.3,30.28,SE,135,0.0,0.0,79,0.00,,---,0.00,VWS V14.00,2013-01-16 03:14:00,
2013-01-15 22:19:00,29.0,23.6,30.27,SE,135,0.0,0.0,80,0.00,,---,0.00,VWS V14.00,2013-01-16 03:19:00,
2013-01-15 22:24:00,29.0,23.6,30.27,SE,135,0.0,0.0,80,0.00,,---,0.00,VWS V14.00,2013-01-16 03:24:00,
2013-01-15 22:29:00,29.0,23.6,30.27,SE,135,0.0,0.0,80,0.00,,---,0.00,VWS V14.00,2013-01-16 03:29:00,
2013-01-15 22:33:00,18.0,6.1,30.21,East,90,0.0,0.0,59,0.00,,---,0.34,VWS V14.00,2013-01-16 03:33:00,
2013-01-15 22:34:00,29.0,23.6,30.27,SE,135,0.0,0.0,80,0.00,,---,0.00,VWS V14.00,2013-01-16 03:34:00,
2013-01-15 22:35:00,18.0,6.1,30.21,East,90,0.0,0.0,59,0.00,,---,0.34,VWS V14.00,2013-01-16 03:35:00,
2013-01-15 22:36:00,18.0,5.7,30.21,East,90,0.0,0.0,58,0.00,,---,0.34,VWS V14.00,2013-01-16 03:36:00,
2013-01-15 22:37:00,18.0,5.7,30.21,East,90,0.0,0.0,58,0.00,,---,0.34,VWS V14.00,2013-01-16 03:37:00,
2013-01-15 22:39:00,29.0,23.6,30.27,SE,135,0.0,0.0,80,0.00,,---,0.00,VWS V14.00,2013-01-16 03:39:00,
2013-01-15 22:44:00,29.0,23.9,30.27,SE,135,0.0,0.0,81,0.00,,---,0.00,VWS V14.00,2013-01-16 03:44:00,
2013-01-15 22:49:00,29.0,23.9,30.27,SE,135,0.0,0.0,81,0.00,,---,0.00,VWS V14.00,2013-01-16 03:49:00,
2013-01-15 22:54:00,29.0,23.9,30.27,SE,135,0.0,0.0,81,0.00,,---,0.00,VWS V14.00,2013-01-16 03:54:00,
2013-01-15 22:59:00,29.0,24.2,30.27,SE,135,0.0,0.0,82,0.00,,---,0.00,VWS V14.00,2013-01-16 03:59:00,
2013-01-15 23:04:00,29.0,24.2,30.27,SE,135,0.0,0.0,82,0.00,,---,0.00,VWS V14.00,2013-01-16 04:04:00,
2013-01-15 23:06:00,16.0,3.8,30.24,ESE,112,0.0,0.0,58,0.00,,---,0.34,VWS V14.00,2013-01-16 04:06:00,
2013-01-15 23:07:00,16.0,3.8,30.24,ESE,112,0.0,0.0,58,0.00,,---,0.34,VWS V14.00,2013-01-16 04:07:00,
2013-01-15 23:08:00,16.0,4.6,30.24,ESE,112,0.0,0.0,60,0.00,,---,0.34,VWS V14.00,2013-01-16 04:08:00,
2013-01-15 23:09:00,29.0,24.5,30.28,SE,135,0.0,0.0,83,0.00,,---,0.00,VWS V14.00,2013-01-16 04:09:00,
2013-01-15 23:10:00,16.0,4.6,30.24,ESE,112,0.0,0.0,60,0.00,,---,0.34,VWS V14.00,2013-01-16 04:10:00,
2013-01-15 23:14:00,29.0,24.5,30.28,SE,135,0.0,0.0,83,0.00,,---,0.00,VWS V14.00,2013-01-16 04:14:00,
2013-01-15 23:19:00,29.0,24.2,30.28,SE,135,0.0,0.0,82,0.00,,---,0.00,VWS V14.00,2013-01-16 04:19:00,
2013-01-15 23:24:00,29.0,23.9,30.28,SE,135,0.0,0.0,81,0.00,,---,0.00,VWS V14.00,2013-01-16 04:24:00,
2013-01-15 23:29:00,29.0,23.9,30.27,SE,135,0.0,0.0,81,0.00,,---,0.00,VWS V14.00,2013-01-16 04:29:00,
2013-01-15 23:34:00,29.0,24.2,30.27,SE,135,0.0,0.0,82,0.00,,---,0.00,VWS V14.00,2013-01-16 04:34:00,
2013-01-15 23:39:00,29.0,24.2,30.27,SE,135,0.0,0.0,82,0.00,,---,0.00,VWS V14.00,2013-01-16 04:39:00,
2013-01-15 23:44:00,29.0,24.5,30.27,SE,135,0.0,0.0,83,0.00,,---,0.00,VWS V14.00,2013-01-16 04:44:00,
2013-01-15 23:49:00,29.0,24.5,30.27,SE,135,0.0,0.0,83,0.00,,---,0.00,VWS V14.00,2013-01-16 04:49:00,
2013-01-15 23:54:00,29.0,24.5,30.27,SE,135,0.0,0.0,83,0.00,,---,0.00,VWS V14.00,2013-01-16 04:54:00,
2013-01-15 23:59:00,29.0,24.8,30.26,SE,135,0.0,0.0,84,0.00,,---,0.00,VWS V14.00,2013-01-16 04:59:00,